Regional Weather Roundup
Issued by NWS

Home | Current Version | Previous Version | Text Only | Print | Product List | Glossary On
Versions: 1 2 3 4 5 6 7 8 9 10 11 12 13 14 15 16 17 18 19 20 21 22 23 24 25 26 27 28 29 30 31 32 33 34 35 36 37 38 39 40 41 42 43 44 45 46 47 48 49 50
000
ASUS43 KLMK 200110
RWRKY
KENTUCKY REGIONAL WEATHER ROUNDUP
NATIONAL WEATHER SERVICE LOUISVILLE KY
900 PM EDT FRI SEP 19 2014

NOTE "FAIR" INDICATES FEW OR NO CLOUDS BELOW 12,000 FEET
WITH NO SIGNIFICANT WEATHER AND/OR OBSTRUCTIONS TO VISIBILITY.

KYZ001>023-026-027-061>063-070>075-200200-
WESTERN AND SOUTH CENTRAL KENTUCKY

CITY           SKY/WX    TMP DP  RH WIND       PRES   REMARKS
PADUCAH        CLEAR     71  63  75 CALM      30.01R
HENDERSON      CLEAR     63  55  77 CALM      30.03R
OWENSBORO      CLEAR     71  59  66 CALM      30.04R
HOPKINSVILLE   CLEAR     72  63  74 N2        30.02S
BOWLING GREEN  CLEAR     71  61  70 CALM      30.04R
GLASGOW        CLEAR     67  59  77 CALM      30.05S
$$

KYZ024-025-028>034-038-045-046-053-200200-
NORTH CENTRAL KENTUCKY

CITY           SKY/WX    TMP DP  RH WIND       PRES   REMARKS
LOUISVILLE/SDF PTCLDY    72  56  57 E5        30.07R
LOUISVILLE/LOU CLEAR     70  56  61 CALM      30.07R
FORT KNOX      CLEAR     65  58  77 NE3       30.06R
$$

KYZ035>037-039>044-047>052-055>060-089>105-200200-
NORTHEAST KENTUCKY

CITY           SKY/WX    TMP DP  RH WIND       PRES   REMARKS
LEXINGTON      CLEAR     68  58  70 CALM      30.09R
COVINGTON      PTCLDY    64  50  60 CALM      30.09R
FRANKFORT      CLEAR     63  56  78 CALM      30.08R
$$

KYZ054-064>069-076>088-106>120-200200-
SOUTHEAST KENTUCKY

CITY           SKY/WX    TMP DP  RH WIND       PRES   REMARKS
JACKSON        CLEAR     70  62  76 VRB3      30.11S
LONDON         CLEAR     68  61  78 CALM      30.10S
SOMERSET       CLEAR     66  61  82 CALM      30.10R
MIDDLESBORO    CLEAR     66  61  83 CALM      30.12R
MONTICELLO     CLEAR     63  61  93 CALM      30.10R
$$



USA.gov is the U.S. government's official web portal to all federal, state and local government web resources and services.